Location: Newark
(48.6461°N, 4.3644°W)
Time: 07:25:48
(UTC+00:00)

Transit 4A - Pass Details

Date: 01 February 2020
Orbit: 872 x 973 km, 66.8° (Epoch: 17 February)

Event Time Altitude Azimuth Distance (km) Brightness Sun altitude
Rises 10:47:03 0° 319° (NW) 3,483 10.3 20.2°
Reaches altitude 10° 10:50:42 10° 341° (NNW) 2,535 9.7 20.5°
Maximum altitude 10:54:05 16° 17° (NNE) 2,159 9.5 20.7°
Drops below altitude 10° 10:57:28 10° 53° (NE) 2,529 10.1 21.0°
Sets 11:01:06 0° 76° (ENE) 3,472 11.0 21.2°
